Simultaneous Nadir Overpasses (SNOs) Predictions

Prediction of SNOs between AQUA and NPP Satellite Orbit:

Table of predicted SNOs for the next 14.0 days since TLE Epoch: 12/7/2013
Index Date (AQUA) Time (AQUA) Lat,Lon (AQUA) SZA (AQUA ) Date (NPP) Time (NPP) Lat,Lon (NPP) SZA (NPP ) Distance(km) Time Diff (sec)
1 12/07/2013 13:17:32 72.82,-147.79 122.01 12/07/2013 13:16:51 72.83,-147.73 122.03 2.13 41
2 12/07/2013 14:06:32 -74.26, 22.92 59.41 12/07/2013 14:07:08 -74.26, 22.92 59.44 0.09 36
3 12/10/2013 05:33:47 73.47, -30.58 121.71 12/10/2013 05:33:38 73.48, -30.53 121.70 1.74 9
4 12/10/2013 06:22:49 -74.79, 140.11 59.62 12/10/2013 06:23:57 -74.79, 140.10 59.68 0.26 68
5 12/12/2013 21:01:17 -71.96, -85.24 56.55 12/12/2013 21:00:24 -71.95, -85.27 56.48 1.15 53
6 12/12/2013 21:50:05 73.92, 86.28 121.54 12/12/2013 21:50:29 73.92, 86.27 121.52 0.60 24
7 12/15/2013 13:17:25 -72.86, 32.32 57.19 12/15/2013 13:17:05 -72.86, 32.30 57.16 0.58 20
8 12/15/2013 14:06:16 74.63,-156.14 121.05 12/15/2013 14:07:13 74.64,-156.11 120.98 0.85 57
9 12/18/2013 04:44:40 71.91, -21.16 123.91 12/18/2013 04:43:37 71.92, -21.12 123.97 1.72 63
10 12/18/2013 05:33:39 -73.45, 149.40 57.59 12/18/2013 05:33:53 -73.44, 149.35 57.59 1.82 14
11 12/20/2013 21:00:56 72.36, 95.55 123.61 12/20/2013 21:00:28 72.36, 95.50 123.65 1.77 28




NCC Satellite Simultaneous Nadir Overpasses (SNOs) Prediction Service
